Weather History for Safford, AZ

Change the Weather History Date:

Monday, December 31, 2012

  Actual Average Record
Temperature  
Mean Temperature 39 °F -  
Max Temperature 46 °F 56 °F 78 °F (1951)
Min Temperature 30 °F 27 °F 13 °F (1954)
Degree Days  
Heating Degree Days 26    
Moisture  
Dew Point 32 °F    
Average Humidity 77    
Maximum Humidity 87    
Minimum Humidity 50    
Precipitation  
Precipitation 0.00 in - - ()
Sea Level Pressure  
Sea Level Pressure 30.03 in    
Wind  
Wind Speed 9 mph (NW)    
Max Wind Speed 17 mph    
Max Gust Speed 25 mph    
Visibility 10 miles    
Events Rain    
Averages and records for this station are not official NWS values.
T = Trace of Precipitation, MM = Missing Value Source: NWS Daily Summary

Daily Weather History Graph

Daily Weather History Graph

Search for Another Location

Airport:

Trip Planner

Search our weather history database for the weather conditions in past years. The results will help you decide how hot, cold, wet, or windy it might be!

Date:

Astronomy

Dec. 31, 2012 Rise Set
Actual Time 7:21 AM MST 5:22 PM MST
Civil Twilight 6:53 AM MST 5:50 PM MST
Nautical Twilight 6:23 AM MST 6:20 PM MST
Astronomical Twilight 5:53 AM MST 6:50 PM MST
Moon 8:44 PM MST (12/31) 9:14 AM MST (12/31)
Length of Visible Light 10h 56m
Length of Day
10h 01m
Waning Gibbous, 90% of the Moon is Illuminated
Dec 31
Waning Gibbous
Jan 4
Last Quarter
Jan 11
New
Jan 18
First Quarter
Jan 26
Full

Hourly Weather History & Observations

Time (MST) Temp. Windchill Dew Point Humidity Pressure Visibility Wind Dir Wind Speed Gust Speed Precip Events Conditions
12:08 AM 39.2 °F 31.2 °F 33.8 °F 81% 29.91 in 10.0 mi WNW 13.8 mph 20.7 mph N/A   Overcast
12:16 AM 39.2 °F 32.5 °F 33.8 °F 81% 29.91 in 10.0 mi WNW 10.4 mph - N/A   Overcast
12:51 AM 39.9 °F 35.8 °F 35.1 °F 83% 29.86 in 10.0 mi NW 5.8 mph - 0.00 in   Overcast
1:51 AM 39.9 °F 32.5 °F 33.1 °F 77% 29.88 in 10.0 mi NNW 12.7 mph - 0.00 in   Overcast
2:51 AM 39.9 °F 32.5 °F 33.1 °F 77% 29.88 in 10.0 mi NW 12.7 mph - N/A   Overcast
3:51 AM 39.0 °F 32.3 °F 32.0 °F 76% 29.90 in 10.0 mi NNW 10.4 mph - N/A   Mostly Cloudy
4:51 AM 37.9 °F 33.5 °F 33.1 °F 83% 29.92 in 10.0 mi SW 5.8 mph - N/A   Clear
5:51 AM 36.0 °F 30.3 °F 32.0 °F 86% 29.94 in 10.0 mi WSW 6.9 mph - N/A   Scattered Clouds
6:13 AM 37.4 °F 32.1 °F 32.0 °F 81% 29.98 in 10.0 mi WSW 6.9 mph - N/A   Overcast
6:49 AM 37.4 °F - 33.8 °F 87% 29.99 in 10.0 mi Calm Calm - N/A   Overcast
6:51 AM 37.0 °F - 33.1 °F 86% 29.97 in 10.0 mi Calm Calm - N/A   Overcast
7:51 AM 37.0 °F - 33.1 °F 86% 30.00 in 10.0 mi Calm Calm - N/A   Mostly Cloudy
8:51 AM 39.0 °F - 34.0 °F 82% 30.02 in 10.0 mi Calm Calm - N/A   Overcast
9:27 AM 39.2 °F - 33.8 °F 81% 30.06 in 10.0 mi Calm Calm - N/A   Overcast
9:51 AM 39.0 °F - 34.0 °F 82% 30.06 in 10.0 mi Calm Calm - N/A   Overcast
10:15 AM 39.2 °F 34.2 °F 35.6 °F 87% 30.08 in 10.0 mi WNW 6.9 mph - 0.00 in Rain Light Rain
10:34 AM 39.2 °F 33.0 °F 35.6 °F 87% 30.08 in 10.0 mi NW 9.2 mph - 0.00 in Rain Light Rain
10:51 AM 39.9 °F 35.8 °F 35.1 °F 83% 30.07 in 10.0 mi WNW 5.8 mph - 0.00 in Rain Light Rain
11:51 AM 42.1 °F 34.2 °F 33.1 °F 70% 30.06 in 10.0 mi NW 16.1 mph 19.6 mph 0.00 in   Overcast
12:04 PM 41.0 °F 34.7 °F 33.8 °F 76% 30.07 in 10.0 mi NW 10.4 mph - N/A   Overcast
12:31 PM 44.6 °F 38.1 °F 32.0 °F 61% 30.06 in 10.0 mi NW 13.8 mph - N/A   Mostly Cloudy
12:47 PM 44.6 °F 37.8 °F 32.0 °F 61% 30.05 in 10.0 mi NW 15.0 mph - N/A   Scattered Clouds
12:51 PM 45.0 °F 38.9 °F 30.9 °F 58% 30.03 in 10.0 mi NW 12.7 mph 23.0 mph N/A   Partly Cloudy
1:51 PM 46.9 °F - 28.9 °F 50% 30.01 in 10.0 mi NW 16.1 mph - N/A   Scattered Clouds
2:51 PM 39.9 °F 31.8 °F 35.1 °F 83% 30.06 in 9.0 mi NNW 15.0 mph 24.2 mph 0.00 in Rain Light Rain
3:11 PM 41.0 °F 32.5 °F 33.8 °F 76% 30.06 in 10.0 mi NW 17.3 mph - 0.00 in   Mostly Cloudy
3:51 PM 42.1 °F 33.9 °F 30.9 °F 65% 30.06 in 10.0 mi NW 17.3 mph 25.3 mph 0.00 in   Clear
4:51 PM 42.1 °F 34.5 °F 30.9 °F 65% 30.07 in 10.0 mi NW 15.0 mph - N/A   Clear
5:51 PM 39.0 °F 31.8 °F 30.9 °F 73% 30.09 in 10.0 mi NW 11.5 mph - N/A   Clear
6:51 PM 37.0 °F 29.8 °F 30.0 °F 76% 30.12 in 10.0 mi NW 10.4 mph - N/A   Clear
7:51 PM 37.0 °F 29.8 °F 28.9 °F 73% 30.14 in 10.0 mi NW 10.4 mph - N/A   Partly Cloudy
8:51 PM 35.1 °F 28.6 °F 28.9 °F 78% 30.15 in 10.0 mi NNW 8.1 mph - N/A   Clear
9:51 PM 34.0 °F 28.0 °F 28.9 °F 82% 30.17 in 10.0 mi NW 6.9 mph - N/A   Clear
10:51 PM 32.0 °F 27.5 °F 28.0 °F 85% 30.18 in 10.0 mi NNW 4.6 mph - N/A   Clear
11:51 PM 30.9 °F 27.5 °F 27.0 °F 85% 30.17 in 10.0 mi NW 3.5 mph - N/A   Clear